Time,TemperatureF,DewpointF,PressureIn,WindDirection,WindDirectionDegrees,WindSpeedMPH,WindSpeedGustMPH,Humidity,HourlyPrecipIn,Conditions,Clouds,dailyrainin,SoftwareType,DateUTC
2013-06-14 00:01:00,52.3,50.9,29.63,ENE,75,2.0,9.0,95,0.36,,,1.94,meteohub,2013-06-14 04:01:00,
2013-06-14 00:06:00,52.3,50.9,29.63,NNE,26,1.0,9.0,95,0.35,,,0.02,meteohub,2013-06-14 04:06:00,
2013-06-14 00:11:00,52.3,50.9,29.63,North,0,2.0,9.0,95,0.39,,,0.08,meteohub,2013-06-14 04:11:00,
2013-06-14 00:16:00,52.3,50.9,29.62,NNW,344,4.0,13.0,95,0.37,,,0.09,meteohub,2013-06-14 04:16:00,
2013-06-14 00:21:00,52.3,50.9,29.62,NE,51,6.0,13.0,95,0.37,,,0.12,meteohub,2013-06-14 04:21:00,
2013-06-14 00:26:00,52.3,50.9,29.62,NE,51,4.0,12.0,95,0.36,,,0.14,meteohub,2013-06-14 04:26:00,
2013-06-14 00:31:00,52.3,50.9,29.63,NNW,346,6.0,10.0,95,0.32,,,0.14,meteohub,2013-06-14 04:31:00,
2013-06-14 00:36:00,52.2,50.7,29.62,NE,37,4.0,10.0,95,0.32,,,0.16,meteohub,2013-06-14 04:36:00,
2013-06-14 00:41:00,52.2,50.5,29.63,NE,44,5.0,10.0,94,0.27,,,0.17,meteohub,2013-06-14 04:41:00,
2013-06-14 00:46:00,52.0,50.4,29.63,ENE,66,3.0,10.0,94,0.24,,,0.18,meteohub,2013-06-14 04:46:00,
2013-06-14 00:51:00,52.0,50.5,29.63,ENE,78,9.0,10.0,95,0.20,,,0.18,meteohub,2013-06-14 04:51:00,
2013-06-14 00:56:00,51.8,50.4,29.63,ENE,59,5.0,13.0,95,0.23,,,0.22,meteohub,2013-06-14 04:56:00,
2013-06-14 01:01:00,51.6,50.0,29.63,NNE,30,5.0,13.0,94,0.22,,,0.22,meteohub,2013-06-14 05:01:00,
2013-06-14 01:06:00,51.6,50.0,29.64,North,9,3.0,13.0,94,0.20,,,0.24,meteohub,2013-06-14 05:06:00,
2013-06-14 01:11:00,51.4,50.0,29.64,NE,36,2.0,12.0,95,0.18,,,0.26,meteohub,2013-06-14 05:11:00,
2013-06-14 01:16:00,51.4,50.0,29.64,NNE,18,3.0,12.0,95,0.17,,,0.27,meteohub,2013-06-14 05:16:00,
2013-06-14 01:21:00,51.4,50.0,29.64,NW,314,3.0,8.0,95,0.16,,,0.28,meteohub,2013-06-14 05:21:00,
2013-06-14 01:26:00,51.4,50.0,29.64,NW,324,3.0,11.0,95,0.16,,,0.29,meteohub,2013-06-14 05:26:00,
2013-06-14 01:31:00,51.3,49.8,29.64,NE,49,5.0,11.0,95,0.15,,,0.30,meteohub,2013-06-14 05:31:00,
2013-06-14 01:36:00,51.3,49.8,29.64,NE,52,5.0,11.0,95,0.16,,,0.32,meteohub,2013-06-14 05:36:00,
2013-06-14 01:41:00,51.3,49.8,29.64,ENE,68,3.0,12.0,95,0.17,,,0.34,meteohub,2013-06-14 05:41:00,
2013-06-14 01:46:00,51.1,49.6,29.64,North,5,5.0,12.0,95,0.17,,,0.35,meteohub,2013-06-14 05:46:00,
2013-06-14 01:51:00,51.1,49.6,29.64,ENE,65,4.0,12.0,95,0.17,,,0.36,meteohub,2013-06-14 05:51:00,
2013-06-14 01:56:00,51.1,49.6,29.64,NE,53,3.0,12.0,95,0.14,,,0.36,meteohub,2013-06-14 05:56:00,
2013-06-14 02:02:00,51.1,49.6,29.65,ENE,58,5.0,14.0,95,0.14,,,0.38,meteohub,2013-06-14 06:02:00,
2013-06-14 02:07:00,51.1,49.6,29.65,NE,48,1.0,14.0,95,0.13,,,0.38,meteohub,2013-06-14 06:07:00,
2013-06-14 02:12:00,51.1,49.6,29.65,NNE,16,5.0,14.0,95,0.13,,,0.39,meteohub,2013-06-14 06:12:00,
2013-06-14 02:17:00,51.1,49.5,29.65,NE,43,3.0,10.0,94,0.12,,,0.40,meteohub,2013-06-14 06:17:00,
2013-06-14 02:22:00,50.9,49.5,29.65,NNE,33,5.0,12.0,95,0.13,,,0.42,meteohub,2013-06-14 06:22:00,
2013-06-14 02:27:00,50.7,49.3,29.65,NNE,23,4.0,12.0,95,0.13,,,0.43,meteohub,2013-06-14 06:27:00,
2013-06-14 02:32:00,50.7,49.3,29.65,NE,48,8.0,12.0,95,0.13,,,0.44,meteohub,2013-06-14 06:32:00,
2013-06-14 02:37:00,50.7,49.3,29.65,NE,48,0.0,11.0,95,0.13,,,0.46,meteohub,2013-06-14 06:37:00,
2013-06-14 02:42:00,50.7,49.3,29.65,NNW,347,1.0,11.0,95,0.12,,,0.46,meteohub,2013-06-14 06:42:00,
2013-06-14 02:47:00,50.7,49.3,29.65,NNE,15,6.0,11.0,95,0.12,,,0.47,meteohub,2013-06-14 06:47:00,
2013-06-14 02:52:00,50.7,49.3,29.65,NNE,13,1.0,8.0,95,0.11,,,0.47,meteohub,2013-06-14 06:52:00,
2013-06-14 02:57:00,50.7,49.3,29.64,NNE,28,4.0,8.0,95,0.11,,,0.48,meteohub,2013-06-14 06:57:00,
2013-06-14 03:02:00,50.7,49.3,29.65,NNW,340,2.0,9.0,95,0.10,,,0.48,meteohub,2013-06-14 07:02:00,
2013-06-14 03:07:00,50.7,49.3,29.65,North,11,2.0,9.0,95,0.10,,,0.49,meteohub,2013-06-14 07:07:00,
2013-06-14 03:12:00,50.7,49.3,29.65,NNE,23,3.0,11.0,95,0.10,,,0.50,meteohub,2013-06-14 07:12:00,
2013-06-14 03:17:00,50.7,49.3,29.66,NNE,24,4.0,11.0,95,0.09,,,0.50,meteohub,2013-06-14 07:17:00,
2013-06-14 03:22:00,50.7,49.3,29.65,NE,52,2.0,11.0,95,0.08,,,0.50,meteohub,2013-06-14 07:22:00,
2013-06-14 03:27:00,50.7,49.3,29.66,NNE,24,5.0,11.0,95,0.07,,,0.51,meteohub,2013-06-14 07:27:00,
2013-06-14 03:32:00,50.7,49.3,29.66,NNE,27,3.0,9.0,95,0.07,,,0.52,meteohub,2013-06-14 07:32:00,
2013-06-14 03:37:00,50.7,49.3,29.66,NNE,33,2.0,9.0,95,0.06,,,0.52,meteohub,2013-06-14 07:37:00,
2013-06-14 03:42:00,50.9,49.5,29.67,NNE,16,5.0,9.0,95,0.06,,,0.52,meteohub,2013-06-14 07:42:00,
2013-06-14 03:47:00,50.9,49.5,29.67,NE,46,1.0,11.0,95,0.06,,,0.53,meteohub,2013-06-14 07:47:00,
2013-06-14 03:52:00,50.9,49.5,29.67,NE,53,5.0,11.0,95,0.05,,,0.53,meteohub,2013-06-14 07:52:00,
2013-06-14 03:57:00,51.1,49.6,29.67,NE,40,2.0,9.0,95,0.06,,,0.54,meteohub,2013-06-14 07:57:00,
2013-06-14 04:02:00,51.1,49.6,29.67,NE,52,4.0,10.0,95,0.06,,,0.54,meteohub,2013-06-14 08:02:00,
2013-06-14 04:07:00,51.1,49.6,29.68,NNW,333,2.0,10.0,95,0.05,,,0.54,meteohub,2013-06-14 08:07:00,
2013-06-14 04:12:00,51.1,49.6,29.68,NNE,32,2.0,10.0,95,0.04,,,0.54,meteohub,2013-06-14 08:12:00,
2013-06-14 04:17:00,51.1,49.6,29.68,NE,37,2.0,9.0,95,0.04,,,0.54,meteohub,2013-06-14 08:17:00,
2013-06-14 04:22:00,51.1,49.6,29.68,NNE,30,4.0,9.0,95,0.04,,,0.54,meteohub,2013-06-14 08:22:00,
2013-06-14 04:27:00,51.1,49.6,29.68,NNW,347,2.0,8.0,95,0.03,,,0.54,meteohub,2013-06-14 08:27:00,
2013-06-14 04:32:00,51.1,49.5,29.68,NE,55,0.0,8.0,94,0.03,,,0.55,meteohub,2013-06-14 08:32:00,
2013-06-14 04:37:00,51.1,49.6,29.68,ENE,72,1.0,8.0,95,0.03,,,0.55,meteohub,2013-06-14 08:37:00,
2013-06-14 04:42:00,51.1,49.6,29.68,ENE,63,7.0,8.0,95,0.03,,,0.56,meteohub,2013-06-14 08:42:00,
2013-06-14 04:47:00,51.1,49.6,29.69,ENE,61,1.0,8.0,95,0.03,,,0.56,meteohub,2013-06-14 08:47:00,
2013-06-14 04:52:00,51.1,49.5,29.69,North,5,2.0,8.0,94,0.03,,,0.56,meteohub,2013-06-14 08:52:00,
2013-06-14 04:57:00,51.1,49.6,29.69,NE,42,2.0,7.0,95,0.02,,,0.56,meteohub,2013-06-14 08:57:00,
2013-06-14 05:02:00,51.1,49.6,29.69,North,10,4.0,7.0,95,0.03,,,0.57,meteohub,2013-06-14 09:02:00,
2013-06-14 05:07:00,51.3,49.8,29.69,NNE,30,2.0,8.0,95,0.04,,,0.58,meteohub,2013-06-14 09:07:00,
2013-06-14 05:12:00,51.1,49.6,29.70,ENE,71,3.0,8.0,95,0.04,,,0.58,meteohub,2013-06-14 09:12:00,
2013-06-14 05:17:00,51.3,49.8,29.69,NE,34,2.0,8.0,95,0.05,,,0.59,meteohub,2013-06-14 09:17:00,
2013-06-14 05:22:00,51.3,49.8,29.69,NNE,14,8.0,8.0,95,0.06,,,0.60,meteohub,2013-06-14 09:22:00,
2013-06-14 05:27:00,51.3,49.8,29.69,North,355,4.0,10.0,95,0.05,,,0.60,meteohub,2013-06-14 09:27:00,
2013-06-14 05:32:00,51.3,49.8,29.69,NE,47,3.0,10.0,95,0.06,,,0.61,meteohub,2013-06-14 09:32:00,
2013-06-14 05:37:00,51.4,50.0,29.69,NE,40,4.0,10.0,95,0.07,,,0.62,meteohub,2013-06-14 09:37:00,
2013-06-14 05:42:00,51.4,50.0,29.69,NE,34,5.0,9.0,95,0.06,,,0.62,meteohub,2013-06-14 09:42:00,
2013-06-14 05:47:00,51.4,50.0,29.69,NE,54,1.0,9.0,95,0.06,,,0.62,meteohub,2013-06-14 09:47:00,
2013-06-14 05:52:00,51.4,50.0,29.69,ENE,76,0.0,8.0,95,0.07,,,0.63,meteohub,2013-06-14 09:52:00,
2013-06-14 05:57:00,51.4,50.0,29.69,East,83,3.0,8.0,95,0.08,,,0.64,meteohub,2013-06-14 09:57:00,
2013-06-14 06:02:00,51.4,50.0,29.69,NE,36,3.0,9.0,95,0.07,,,0.64,meteohub,2013-06-14 10:02:00,
2013-06-14 06:07:00,51.4,49.8,29.69,NNE,26,4.0,9.0,94,0.06,,,0.64,meteohub,2013-06-14 10:07:00,
2013-06-14 06:12:00,51.4,49.8,29.69,NNE,24,3.0,9.0,94,0.07,,,0.65,meteohub,2013-06-14 10:12:00,
2013-06-14 06:17:00,51.4,49.8,29.69,NNE,18,2.0,8.0,94,0.06,,,0.65,meteohub,2013-06-14 10:17:00,
2013-06-14 06:22:00,51.4,50.0,29.69,ENE,61,3.0,8.0,95,0.05,,,0.65,meteohub,2013-06-14 10:22:00,
2013-06-14 06:27:00,51.4,50.0,29.70,NNE,28,2.0,8.0,95,0.05,,,0.65,meteohub,2013-06-14 10:27:00,
2013-06-14 06:32:00,51.4,50.0,29.70,NE,46,2.0,4.0,95,0.04,,,0.65,meteohub,2013-06-14 10:32:00,
2013-06-14 06:37:00,51.4,50.0,29.70,NE,48,2.0,6.0,95,0.03,,,0.65,meteohub,2013-06-14 10:37:00,
2013-06-14 06:42:00,51.4,50.0,29.71,NNE,26,0.0,6.0,95,0.03,,,0.65,meteohub,2013-06-14 10:42:00,
2013-06-14 06:47:00,51.6,50.2,29.71,NE,34,5.0,6.0,95,0.03,,,0.66,meteohub,2013-06-14 10:47:00,
2013-06-14 06:52:00,51.6,50.2,29.71,NE,37,4.0,7.0,95,0.03,,,0.66,meteohub,2013-06-14 10:52:00,
2013-06-14 06:57:00,51.6,50.2,29.71,NE,44,1.0,7.0,95,0.02,,,0.66,meteohub,2013-06-14 10:57:00,
2013-06-14 07:02:00,52.0,50.5,29.71,NNE,29,3.0,7.0,95,0.02,,,0.66,meteohub,2013-06-14 11:02:00,
2013-06-14 07:07:00,52.0,50.5,29.72,NE,44,4.0,7.0,95,0.02,,,0.66,meteohub,2013-06-14 11:07:00,
2013-06-14 07:12:00,52.2,50.7,29.72,ENE,60,1.0,7.0,95,0.01,,,0.66,meteohub,2013-06-14 11:12:00,
2013-06-14 07:17:00,52.2,50.5,29.72,North,9,2.0,7.0,94,0.01,,,0.66,meteohub,2013-06-14 11:17:00,
2013-06-14 07:22:00,52.3,50.7,29.73,NE,48,0.0,6.0,94,0.01,,,0.66,meteohub,2013-06-14 11:22:00,
2013-06-14 07:27:00,52.3,50.7,29.73,ENE,57,2.0,6.0,94,0.01,,,0.66,meteohub,2013-06-14 11:27:00,
2013-06-14 07:32:00,52.3,50.9,29.73,NNE,19,2.0,6.0,95,0.01,,,0.66,meteohub,2013-06-14 11:32:00,
2013-06-14 07:37:00,52.3,50.7,29.73,NE,44,2.0,4.0,94,0.01,,,0.66,meteohub,2013-06-14 11:37:00,
2013-06-14 07:42:00,52.3,50.7,29.72,ENE,78,2.0,6.0,94,0.01,,,0.66,meteohub,2013-06-14 11:42:00,
2013-06-14 07:47:00,52.5,50.9,29.73,NE,53,3.0,6.0,94,0.00,,,0.66,meteohub,2013-06-14 11:47:00,
2013-06-14 07:52:00,52.5,50.9,29.73,ENE,61,0.0,6.0,94,0.01,,,0.67,meteohub,2013-06-14 11:52:00,
2013-06-14 07:57:00,52.7,51.1,29.73,NE,44,1.0,5.0,94,0.01,,,0.67,meteohub,2013-06-14 11:57:00,
2013-06-14 08:02:00,52.7,51.1,29.73,NE,35,2.0,4.0,94,0.01,,,0.67,meteohub,2013-06-14 12:02:00,
2013-06-14 08:07:00,52.7,51.1,29.73,NE,42,1.0,5.0,94,0.01,,,0.67,meteohub,2013-06-14 12:07:00,
2013-06-14 08:12:00,52.9,51.3,29.72,NNE,15,3.0,6.0,94,0.01,,,0.67,meteohub,2013-06-14 12:12:00,
2013-06-14 08:17:00,52.9,51.3,29.72,NE,42,3.0,6.0,94,0.01,,,0.67,meteohub,2013-06-14 12:17:00,
2013-06-14 08:22:00,53.1,51.4,29.72,NNE,25,2.0,7.0,94,0.01,,,0.67,meteohub,2013-06-14 12:22:00,
2013-06-14 08:27:00,53.2,51.6,29.73,NNE,24,1.0,8.0,94,0.01,,,0.67,meteohub,2013-06-14 12:27:00,
2013-06-14 08:32:00,53.2,51.6,29.73,NE,34,4.0,8.0,94,0.01,,,0.67,meteohub,2013-06-14 12:32:00,
2013-06-14 08:37:00,53.4,51.4,29.73,NNE,30,2.0,8.0,93,0.01,,,0.67,meteohub,2013-06-14 12:37:00,
2013-06-14 08:42:00,53.8,52.2,29.74,NNW,338,2.0,8.0,94,0.01,,,0.67,meteohub,2013-06-14 12:42:00,
2013-06-14 08:47:00,53.8,51.8,29.74,North,5,2.0,8.0,93,0.01,,,0.67,meteohub,2013-06-14 12:47:00,
2013-06-14 08:52:00,54.0,52.0,29.74,NNE,31,3.0,6.0,93,0.00,,,0.67,meteohub,2013-06-14 12:52:00,
2013-06-14 08:57:00,54.1,51.8,29.74,NE,34,2.0,7.0,92,0.00,,,0.67,meteohub,2013-06-14 12:57:00,
2013-06-14 09:02:00,54.3,52.3,29.74,North,0,1.0,7.0,93,0.00,,,0.67,meteohub,2013-06-14 13:02:00,
2013-06-14 09:07:00,54.7,52.3,29.74,North,10,5.0,7.0,92,0.00,,,0.67,meteohub,2013-06-14 13:07:00,
2013-06-14 09:12:00,54.9,52.5,29.75,NE,49,4.0,7.0,92,0.00,,,0.67,meteohub,2013-06-14 13:12:00,
2013-06-14 09:17:00,55.0,52.5,29.75,NNE,27,2.0,8.0,91,0.00,,,0.67,meteohub,2013-06-14 13:17:00,
2013-06-14 09:22:00,55.2,52.7,29.74,NNE,26,3.0,8.0,91,0.00,,,0.67,meteohub,2013-06-14 13:22:00,
2013-06-14 09:27:00,55.4,52.5,29.74,ENE,76,0.0,10.0,90,0.00,,,0.67,meteohub,2013-06-14 13:27:00,
2013-06-14 09:32:00,55.6,52.7,29.74,NE,36,3.0,10.0,90,0.00,,,0.67,meteohub,2013-06-14 13:32:00,
2013-06-14 09:37:00,55.8,52.9,29.75,North,0,3.0,10.0,90,0.00,,,0.67,meteohub,2013-06-14 13:37:00,
2013-06-14 09:43:00,55.9,52.7,29.75,East,80,6.0,9.0,89,0.00,,,0.67,meteohub,2013-06-14 13:43:00,
2013-06-14 09:47:00,56.1,53.2,29.75,NNE,32,3.0,9.0,90,0.00,,,0.67,meteohub,2013-06-14 13:47:00,
2013-06-14 09:53:00,56.1,52.7,29.75,NE,39,5.0,9.0,88,0.00,,,0.67,meteohub,2013-06-14 13:53:00,
2013-06-14 09:58:00,56.3,52.9,29.76,ENE,74,2.0,8.0,88,0.00,,,0.67,meteohub,2013-06-14 13:58:00,
2013-06-14 10:03:00,56.5,52.7,29.76,NE,34,5.0,9.0,87,0.00,,,0.67,meteohub,2013-06-14 14:03:00,
2013-06-14 10:08:00,56.5,52.3,29.77,ENE,69,1.0,10.0,86,0.00,,,0.67,meteohub,2013-06-14 14:08:00,
2013-06-14 10:13:00,56.5,52.7,29.77,NNE,19,3.0,10.0,87,0.00,,,0.67,meteohub,2013-06-14 14:13:00,
2013-06-14 10:18:00,56.7,52.9,29.77,ENE,68,5.0,9.0,87,0.00,,,0.67,meteohub,2013-06-14 14:18:00,
2013-06-14 10:23:00,56.7,52.9,29.77,North,355,3.0,9.0,87,0.00,,,0.67,meteohub,2013-06-14 14:23:00,
2013-06-14 10:28:00,56.8,52.7,29.78,NE,42,2.0,7.0,86,0.00,,,0.67,meteohub,2013-06-14 14:28:00,
2013-06-14 10:33:00,57.0,52.2,29.78,NNE,24,6.0,7.0,84,0.00,,,0.67,meteohub,2013-06-14 14:33:00,
2013-06-14 10:38:00,57.0,52.5,29.78,NNE,31,4.0,6.0,85,0.00,,,0.67,meteohub,2013-06-14 14:38:00,
2013-06-14 10:43:00,57.4,53.2,29.78,NNE,27,0.0,8.0,86,0.00,,,0.67,meteohub,2013-06-14 14:43:00,
2013-06-14 10:48:00,57.6,53.8,29.78,North,355,2.0,8.0,87,0.00,,,0.67,meteohub,2013-06-14 14:48:00,
2013-06-14 10:53:00,57.7,52.9,29.78,NNE,13,4.0,7.0,84,0.00,,,0.67,meteohub,2013-06-14 14:53:00,
2013-06-14 10:58:00,57.9,53.4,29.78,NNE,28,4.0,7.0,85,0.00,,,0.67,meteohub,2013-06-14 14:58:00,
2013-06-14 11:03:00,58.3,53.4,29.79,NNE,15,3.0,7.0,84,0.00,,,0.67,meteohub,2013-06-14 15:03:00,
2013-06-14 11:08:00,58.5,53.6,29.79,ENE,59,2.0,7.0,84,0.00,,,0.67,meteohub,2013-06-14 15:08:00,
2013-06-14 11:13:00,58.5,53.2,29.79,ENE,71,0.0,6.0,83,0.00,,,0.67,meteohub,2013-06-14 15:13:00,
2013-06-14 11:18:00,58.6,53.4,29.79,ENE,71,0.0,5.0,83,0.00,,,0.67,meteohub,2013-06-14 15:18:00,
2013-06-14 11:23:00,58.8,53.1,29.79,NNE,24,3.0,5.0,81,0.00,,,0.67,meteohub,2013-06-14 15:23:00,
2013-06-14 11:28:00,59.2,53.4,29.79,NNE,24,2.0,5.0,81,0.00,,,0.67,meteohub,2013-06-14 15:28:00,
2013-06-14 11:33:00,59.2,53.6,29.80,ENE,63,0.0,5.0,82,0.00,,,0.67,meteohub,2013-06-14 15:33:00,
2013-06-14 11:38:00,59.4,53.8,29.80,NNW,334,0.0,5.0,82,0.00,,,0.67,meteohub,2013-06-14 15:38:00,
2013-06-14 11:43:00,59.5,53.8,29.80,NNE,26,0.0,5.0,81,0.00,,,0.67,meteohub,2013-06-14 15:43:00,
2013-06-14 11:48:00,59.5,54.3,29.80,NE,54,0.0,5.0,83,0.00,,,0.67,meteohub,2013-06-14 15:48:00,
2013-06-14 11:53:00,59.7,54.1,29.80,ENE,76,0.0,5.0,82,0.00,,,0.67,meteohub,2013-06-14 15:53:00,
2013-06-14 11:58:00,60.1,54.3,29.80,NE,43,1.0,5.0,81,0.00,,,0.67,meteohub,2013-06-14 15:58:00,
2013-06-14 12:03:00,60.3,54.7,29.80,ENE,63,2.0,4.0,82,0.00,,,0.67,meteohub,2013-06-14 16:03:00,
2013-06-14 12:08:00,60.4,55.2,29.80,NNE,26,1.0,5.0,83,0.00,,,0.67,meteohub,2013-06-14 16:08:00,
2013-06-14 12:13:00,61.0,54.1,29.80,NE,46,0.0,5.0,78,0.00,,,0.67,meteohub,2013-06-14 16:13:00,
2013-06-14 12:18:00,61.3,54.1,29.79,ENE,69,3.0,4.0,77,0.00,,,0.67,meteohub,2013-06-14 16:18:00,
2013-06-14 12:23:00,61.5,53.6,29.79,ENE,70,1.0,4.0,75,0.00,,,0.67,meteohub,2013-06-14 16:23:00,
2013-06-14 12:28:00,61.3,53.8,29.79,NNE,27,0.0,7.0,76,0.00,,,0.67,meteohub,2013-06-14 16:28:00,
2013-06-14 12:33:00,61.5,52.0,29.79,NE,49,3.0,7.0,71,0.00,,,0.67,meteohub,2013-06-14 16:33:00,
2013-06-14 12:38:00,61.9,53.4,29.79,NNE,30,0.0,7.0,74,0.00,,,0.67,meteohub,2013-06-14 16:38:00,
2013-06-14 12:43:00,62.2,53.1,29.79,NE,49,0.0,7.0,72,0.00,,,0.67,meteohub,2013-06-14 16:43:00,
2013-06-14 12:48:00,62.6,53.1,29.79,NE,49,3.0,7.0,71,0.00,,,0.67,meteohub,2013-06-14 16:48:00,
2013-06-14 12:53:00,63.0,53.8,29.78,NE,46,2.0,5.0,72,0.00,,,0.67,meteohub,2013-06-14 16:53:00,
2013-06-14 12:58:00,63.3,53.8,29.79,NNE,27,0.0,5.0,71,0.00,,,0.67,meteohub,2013-06-14 16:58:00,
2013-06-14 13:03:00,63.7,54.1,29.78,NNE,31,0.0,6.0,71,0.00,,,0.67,meteohub,2013-06-14 17:03:00,
2013-06-14 13:08:00,64.0,55.6,29.78,NNE,29,0.0,6.0,74,0.00,,,0.67,meteohub,2013-06-14 17:08:00,
2013-06-14 13:13:00,64.6,54.5,29.78,NNE,29,0.0,6.0,70,0.00,,,0.67,meteohub,2013-06-14 17:13:00,
2013-06-14 13:18:00,64.9,54.9,29.78,SSW,202,0.0,5.0,70,0.00,,,0.67,meteohub,2013-06-14 17:18:00,
2013-06-14 13:23:00,65.5,55.8,29.78,SSW,202,1.0,2.0,71,0.00,,,0.67,meteohub,2013-06-14 17:23:00,
2013-06-14 13:28:00,65.8,56.5,29.78,SSW,198,2.0,2.0,72,0.00,,,0.67,meteohub,2013-06-14 17:28:00,
2013-06-14 13:34:00,66.2,55.8,29.78,East,95,0.0,3.0,69,0.00,,,0.67,meteohub,2013-06-14 17:34:00,
2013-06-14 13:39:00,66.4,56.3,29.78,ENE,74,0.0,4.0,70,0.00,,,0.67,meteohub,2013-06-14 17:39:00,
2013-06-14 13:44:00,66.6,55.2,29.78,ENE,57,0.0,4.0,67,0.00,,,0.67,meteohub,2013-06-14 17:44:00,
2013-06-14 13:49:00,66.7,55.4,29.78,NNW,345,0.0,3.0,67,0.00,,,0.67,meteohub,2013-06-14 17:49:00,
2013-06-14 13:54:00,67.3,56.8,29.78,NE,38,1.0,3.0,69,0.00,,,0.67,meteohub,2013-06-14 17:54:00,
2013-06-14 13:59:00,67.5,55.8,29.78,NE,38,0.0,3.0,66,0.00,,,0.67,meteohub,2013-06-14 17:59:00,
2013-06-14 14:04:00,67.8,56.1,29.78,South,175,2.0,2.0,66,0.00,,,0.67,meteohub,2013-06-14 18:04:00,
2013-06-14 14:09:00,68.4,57.0,29.78,South,175,0.0,3.0,67,0.00,,,0.67,meteohub,2013-06-14 18:09:00,
2013-06-14 14:14:00,69.3,57.4,29.78,South,175,0.0,4.0,66,0.00,,,0.67,meteohub,2013-06-14 18:14:00,
2013-06-14 14:19:00,69.6,55.9,29.78,SE,140,1.0,4.0,62,0.00,,,0.67,meteohub,2013-06-14 18:19:00,
2013-06-14 14:24:00,70.3,57.2,29.78,SE,140,1.0,2.0,63,0.00,,,0.67,meteohub,2013-06-14 18:24:00,
2013-06-14 14:29:00,70.5,57.7,29.78,SSE,159,0.0,2.0,64,0.00,,,0.67,meteohub,2013-06-14 18:29:00,
2013-06-14 14:34:00,70.5,55.9,29.78,ENE,71,0.0,1.0,60,0.00,,,0.67,meteohub,2013-06-14 18:34:00,
2013-06-14 14:39:00,70.9,55.8,29.77,NNE,26,0.0,2.0,59,0.00,,,0.67,meteohub,2013-06-14 18:39:00,
2013-06-14 14:44:00,70.9,55.4,29.78,NE,52,0.0,3.0,58,0.00,,,0.67,meteohub,2013-06-14 18:44:00,
2013-06-14 14:49:00,71.1,57.4,29.77,NE,39,5.0,5.0,62,0.00,,,0.67,meteohub,2013-06-14 18:49:00,
2013-06-14 14:54:00,70.7,53.8,29.77,ENE,70,4.0,5.0,55,0.00,,,0.67,meteohub,2013-06-14 18:54:00,
2013-06-14 14:59:00,70.3,52.9,29.77,NE,50,1.0,6.0,54,0.00,,,0.67,meteohub,2013-06-14 18:59:00,
2013-06-14 15:04:00,70.3,54.9,29.77,NE,39,0.0,7.0,58,0.00,,,0.67,meteohub,2013-06-14 19:04:00,
2013-06-14 15:09:00,70.2,54.1,29.78,NE,54,2.0,7.0,57,0.00,,,0.67,meteohub,2013-06-14 19:09:00,
2013-06-14 15:14:00,70.2,52.2,29.77,NE,49,0.0,7.0,53,0.00,,,0.67,meteohub,2013-06-14 19:14:00,
2013-06-14 15:19:00,70.0,53.1,29.77,NE,52,0.0,9.0,55,0.00,,,0.67,meteohub,2013-06-14 19:19:00,
2013-06-14 15:24:00,70.0,51.6,29.77,NNE,28,0.0,9.0,52,0.00,,,0.67,meteohub,2013-06-14 19:24:00,
2013-06-14 15:29:00,70.2,53.8,29.77,NE,53,2.0,4.0,56,0.00,,,0.67,meteohub,2013-06-14 19:29:00,
2013-06-14 15:34:00,70.0,52.0,29.77,NE,51,0.0,4.0,53,0.00,,,0.67,meteohub,2013-06-14 19:34:00,
2013-06-14 15:39:00,70.0,51.6,29.77,NE,35,0.0,5.0,52,0.00,,,0.67,meteohub,2013-06-14 19:39:00,
2013-06-14 15:44:00,69.8,50.9,29.77,ENE,69,1.0,5.0,51,0.00,,,0.67,meteohub,2013-06-14 19:44:00,
2013-06-14 15:49:00,70.0,52.0,29.77,North,9,0.0,4.0,53,0.00,,,0.67,meteohub,2013-06-14 19:49:00,
2013-06-14 15:54:00,70.0,51.1,29.77,NE,38,0.0,4.0,51,0.00,,,0.67,meteohub,2013-06-14 19:54:00,
2013-06-14 15:59:00,70.0,51.6,29.77,NE,48,0.0,4.0,52,0.00,,,0.67,meteohub,2013-06-14 19:59:00,
2013-06-14 16:04:00,70.0,51.1,29.77,NE,38,0.0,3.0,51,0.00,,,0.67,meteohub,2013-06-14 20:04:00,
2013-06-14 16:09:00,70.2,52.2,29.77,ENE,65,3.0,4.0,53,0.00,,,0.67,meteohub,2013-06-14 20:09:00,
2013-06-14 16:14:00,70.2,51.8,29.77,NE,36,3.0,5.0,52,0.00,,,0.67,meteohub,2013-06-14 20:14:00,
2013-06-14 16:19:00,70.2,52.7,29.77,NNE,28,0.0,5.0,54,0.00,,,0.67,meteohub,2013-06-14 20:19:00,
2013-06-14 16:24:00,70.2,52.2,29.77,NE,38,0.0,5.0,53,0.00,,,0.67,meteohub,2013-06-14 20:24:00,
2013-06-14 16:29:00,70.2,53.8,29.77,NE,38,0.0,4.0,56,0.00,,,0.67,meteohub,2013-06-14 20:29:00,
2013-06-14 16:34:00,70.2,54.7,29.77,NE,39,0.0,3.0,58,0.00,,,0.67,meteohub,2013-06-14 20:34:00,
2013-06-14 16:39:00,70.3,55.8,29.77,WSW,248,0.0,3.0,60,0.00,,,0.67,meteohub,2013-06-14 20:39:00,
2013-06-14 16:44:00,70.3,54.9,29.77,WSW,249,0.0,0.0,58,0.00,,,0.67,meteohub,2013-06-14 20:44:00,
2013-06-14 16:49:00,70.3,54.0,29.77,NE,43,2.0,3.0,56,0.00,,,0.67,meteohub,2013-06-14 20:49:00,
2013-06-14 16:54:00,70.5,55.6,29.77,NE,46,0.0,3.0,59,0.00,,,0.67,meteohub,2013-06-14 20:54:00,
2013-06-14 16:59:00,70.5,55.6,29.77,NE,46,0.0,2.0,59,0.00,,,0.67,meteohub,2013-06-14 20:59:00,
2013-06-14 17:04:00,70.7,54.7,29.77,SSW,212,0.0,2.0,57,0.00,,,0.67,meteohub,2013-06-14 21:04:00,
2013-06-14 17:09:00,70.9,55.8,29.77,SSW,212,0.0,3.0,59,0.00,,,0.67,meteohub,2013-06-14 21:09:00,
2013-06-14 17:14:00,70.9,54.9,29.77,SW,225,2.0,7.0,57,0.00,,,0.67,meteohub,2013-06-14 21:14:00,
2013-06-14 17:20:00,71.1,55.6,29.77,SSW,211,1.0,7.0,58,0.00,,,0.67,meteohub,2013-06-14 21:20:00,
2013-06-14 17:25:00,71.2,55.8,29.77,SW,219,2.0,4.0,58,0.00,,,0.67,meteohub,2013-06-14 21:25:00,
2013-06-14 17:30:00,71.2,56.1,29.77,WSW,238,0.0,4.0,59,0.00,,,0.67,meteohub,2013-06-14 21:30:00,
2013-06-14 17:35:00,71.2,55.8,29.77,SW,223,2.0,4.0,58,0.00,,,0.67,meteohub,2013-06-14 21:35:00,
2013-06-14 17:40:00,71.1,55.6,29.77,SW,224,0.0,4.0,58,0.00,,,0.67,meteohub,2013-06-14 21:40:00,
2013-06-14 17:45:00,70.9,56.8,29.78,SW,224,0.0,4.0,61,0.00,,,0.67,meteohub,2013-06-14 21:45:00,
2013-06-14 17:50:00,70.9,58.1,29.78,SW,224,0.0,4.0,64,0.00,,,0.67,meteohub,2013-06-14 21:50:00,
2013-06-14 17:55:00,70.5,57.4,29.78,SW,224,0.0,2.0,63,0.00,,,0.67,meteohub,2013-06-14 21:55:00,
2013-06-14 18:00:00,70.5,57.7,29.77,SW,224,0.0,2.0,64,0.00,,,0.67,meteohub,2013-06-14 22:00:00,
2013-06-14 18:05:00,70.5,59.4,29.78,SW,224,0.0,1.0,68,0.00,,,0.67,meteohub,2013-06-14 22:05:00,
2013-06-14 18:10:00,70.3,58.5,29.78,SW,224,0.0,2.0,66,0.00,,,0.67,meteohub,2013-06-14 22:10:00,
2013-06-14 18:15:00,70.3,58.1,29.78,SW,224,1.0,2.0,65,0.00,,,0.67,meteohub,2013-06-14 22:15:00,
2013-06-14 18:20:00,70.3,59.4,29.78,SW,224,0.0,3.0,68,0.00,,,0.67,meteohub,2013-06-14 22:20:00,
2013-06-14 18:25:00,70.3,59.4,29.78,SW,224,0.0,3.0,68,0.00,,,0.67,meteohub,2013-06-14 22:25:00,
2013-06-14 18:30:00,70.2,59.2,29.78,SW,224,0.0,1.0,68,0.00,,,0.67,meteohub,2013-06-14 22:30:00,
2013-06-14 18:35:00,70.2,59.2,29.78,SW,224,0.0,0.0,68,0.00,,,0.67,meteohub,2013-06-14 22:35:00,
2013-06-14 18:40:00,70.0,59.4,29.78,SW,224,0.0,0.0,69,0.00,,,0.67,meteohub,2013-06-14 22:40:00,
2013-06-14 18:45:00,69.6,60.3,29.79,SW,224,0.0,0.0,72,0.00,,,0.67,meteohub,2013-06-14 22:45:00,
2013-06-14 18:50:00,69.4,60.4,29.79,SW,224,0.0,0.0,73,0.00,,,0.67,meteohub,2013-06-14 22:50:00,
2013-06-14 18:55:00,69.1,60.1,29.79,SW,224,0.0,1.0,73,0.00,,,0.67,meteohub,2013-06-14 22:55:00,
2013-06-14 19:00:00,68.5,57.6,29.78,SW,218,1.0,2.0,68,0.00,,,0.67,meteohub,2013-06-14 23:00:00,
2013-06-14 19:05:00,68.4,58.3,29.79,SW,229,0.0,4.0,70,0.00,,,0.67,meteohub,2013-06-14 23:05:00,
2013-06-14 19:10:00,68.2,58.1,29.79,South,171,0.0,6.0,70,0.00,,,0.67,meteohub,2013-06-14 23:10:00,
2013-06-14 19:15:00,67.8,58.5,29.79,SSE,167,0.0,6.0,72,0.00,,,0.67,meteohub,2013-06-14 23:15:00,
2013-06-14 19:20:00,67.5,58.5,29.80,WSW,245,2.0,6.0,73,0.00,,,0.67,meteohub,2013-06-14 23:20:00,
2013-06-14 19:25:00,66.9,57.2,29.80,SW,227,2.0,3.0,71,0.00,,,0.67,meteohub,2013-06-14 23:25:00,
2013-06-14 19:30:00,66.7,58.1,29.80,SW,227,0.0,6.0,74,0.00,,,0.67,meteohub,2013-06-14 23:30:00,
2013-06-14 19:35:00,66.6,58.5,29.80,SW,227,0.0,6.0,75,0.00,,,0.67,meteohub,2013-06-14 23:35:00,
2013-06-14 19:40:00,66.0,57.6,29.80,SW,227,0.0,5.0,74,0.00,,,0.67,meteohub,2013-06-14 23:40:00,
2013-06-14 19:45:00,65.8,57.7,29.80,SW,227,0.0,3.0,75,0.00,,,0.67,meteohub,2013-06-14 23:45:00,
2013-06-14 19:50:00,65.5,57.4,29.80,SW,227,0.0,3.0,75,0.00,,,0.67,meteohub,2013-06-14 23:50:00,
2013-06-14 19:55:00,65.3,57.2,29.80,SW,227,0.0,5.0,75,0.00,,,0.67,meteohub,2013-06-14 23:55:00,
2013-06-14 20:00:00,65.1,57.4,29.81,SW,227,0.0,5.0,76,0.00,,,0.67,meteohub,2013-06-15 00:00:00,
2013-06-14 20:05:00,64.9,57.6,29.81,SW,227,0.0,5.0,77,0.00,,,0.67,meteohub,2013-06-15 00:05:00,
2013-06-14 20:10:00,64.8,57.4,29.81,SW,227,1.0,0.0,77,0.00,,,0.67,meteohub,2013-06-15 00:10:00,
2013-06-14 20:15:00,64.4,57.4,29.81,SW,227,0.0,2.0,78,0.00,,,0.67,meteohub,2013-06-15 00:15:00,
2013-06-14 20:20:00,64.0,57.7,29.81,SW,227,0.0,2.0,80,0.00,,,0.67,meteohub,2013-06-15 00:20:00,
2013-06-14 20:25:00,63.9,57.6,29.81,SW,227,0.0,2.0,80,0.00,,,0.67,meteohub,2013-06-15 00:25:00,
2013-06-14 20:30:00,63.7,57.4,29.81,SW,227,0.0,1.0,80,0.00,,,0.67,meteohub,2013-06-15 00:30:00,
2013-06-14 20:36:00,63.3,57.4,29.81,SW,227,0.0,0.0,81,0.00,,,0.67,meteohub,2013-06-15 00:36:00,
2013-06-14 20:41:00,63.1,57.6,29.81,SW,227,0.0,1.0,82,0.00,,,0.67,meteohub,2013-06-15 00:41:00,
2013-06-14 20:46:00,63.0,57.4,29.81,SW,227,0.0,1.0,82,0.00,,,0.67,meteohub,2013-06-15 00:46:00,
2013-06-14 20:51:00,62.8,57.6,29.81,SW,227,0.0,1.0,83,0.00,,,0.67,meteohub,2013-06-15 00:51:00,
2013-06-14 20:56:00,62.4,57.2,29.81,SW,227,0.0,0.0,83,0.00,,,0.67,meteohub,2013-06-15 00:56:00,
2013-06-14 21:01:00,62.2,57.4,29.82,SW,227,0.0,1.0,84,0.00,,,0.67,meteohub,2013-06-15 01:01:00,
2013-06-14 21:06:00,61.9,57.4,29.82,SW,227,0.0,1.0,85,0.00,,,0.67,meteohub,2013-06-15 01:06:00,
2013-06-14 21:11:00,61.7,57.2,29.82,SW,227,0.0,1.0,85,0.00,,,0.67,meteohub,2013-06-15 01:11:00,
2013-06-14 21:16:00,61.5,57.0,29.82,SW,227,0.0,0.0,85,0.00,,,0.67,meteohub,2013-06-15 01:16:00,
2013-06-14 21:21:00,61.3,57.2,29.83,SW,227,0.0,0.0,86,0.00,,,0.67,meteohub,2013-06-15 01:21:00,
2013-06-14 21:26:00,61.2,57.2,29.83,South,190,0.0,2.0,87,0.00,,,0.67,meteohub,2013-06-15 01:26:00,
2013-06-14 21:31:00,61.2,57.0,29.83,South,190,0.0,2.0,86,0.00,,,0.67,meteohub,2013-06-15 01:31:00,
2013-06-14 21:36:00,61.0,56.8,29.83,South,190,0.0,2.0,86,0.00,,,0.67,meteohub,2013-06-15 01:36:00,
2013-06-14 21:41:00,61.0,57.0,29.83,South,190,0.0,2.0,87,0.00,,,0.67,meteohub,2013-06-15 01:41:00,
2013-06-14 21:46:00,61.0,57.0,29.83,South,190,0.0,2.0,87,0.00,,,0.67,meteohub,2013-06-15 01:46:00,
2013-06-14 21:51:00,60.6,56.7,29.83,South,190,0.0,0.0,87,0.00,,,0.67,meteohub,2013-06-15 01:51:00,
2013-06-14 21:56:00,60.4,56.5,29.83,South,190,0.0,0.0,87,0.00,,,0.67,meteohub,2013-06-15 01:56:00,
2013-06-14 22:01:00,60.4,56.8,29.83,South,190,0.0,0.0,88,0.00,,,0.67,meteohub,2013-06-15 02:01:00,
2013-06-14 22:06:00,60.3,56.7,29.83,South,190,0.0,0.0,88,0.00,,,0.67,meteohub,2013-06-15 02:06:00,
2013-06-14 22:11:00,60.1,56.8,29.84,South,190,0.0,0.0,89,0.00,,,0.67,meteohub,2013-06-15 02:11:00,
2013-06-14 22:16:00,59.7,56.5,29.84,South,190,0.0,0.0,89,0.00,,,0.67,meteohub,2013-06-15 02:16:00,
2013-06-14 22:21:00,59.5,56.3,29.84,South,190,0.0,0.0,89,0.00,,,0.67,meteohub,2013-06-15 02:21:00,
2013-06-14 22:26:00,59.5,56.3,29.84,South,190,0.0,0.0,89,0.00,,,0.67,meteohub,2013-06-15 02:26:00,
2013-06-14 22:31:00,59.5,56.7,29.84,South,190,0.0,1.0,90,0.00,,,0.67,meteohub,2013-06-15 02:31:00,
2013-06-14 22:36:00,59.4,56.5,29.84,South,190,0.0,1.0,90,0.00,,,0.67,meteohub,2013-06-15 02:36:00,
2013-06-14 22:41:00,59.4,56.5,29.84,South,190,0.0,0.0,90,0.00,,,0.67,meteohub,2013-06-15 02:41:00,
2013-06-14 22:46:00,59.4,56.5,29.84,South,190,0.0,0.0,90,0.00,,,0.67,meteohub,2013-06-15 02:46:00,
2013-06-14 22:51:00,59.4,56.5,29.84,South,190,0.0,0.0,90,0.00,,,0.67,meteohub,2013-06-15 02:51:00,
2013-06-14 22:56:00,59.2,56.3,29.84,South,190,0.0,0.0,90,0.00,,,0.67,meteohub,2013-06-15 02:56:00,
2013-06-14 23:01:00,59.2,56.3,29.84,South,190,0.0,0.0,90,0.00,,,0.67,meteohub,2013-06-15 03:01:00,
2013-06-14 23:06:00,59.0,56.3,29.84,South,190,0.0,0.0,91,0.00,,,0.67,meteohub,2013-06-15 03:06:00,
2013-06-14 23:11:00,59.0,56.3,29.84,South,190,0.0,0.0,91,0.00,,,0.67,meteohub,2013-06-15 03:11:00,
2013-06-14 23:16:00,59.0,56.3,29.84,South,190,0.0,0.0,91,0.00,,,0.67,meteohub,2013-06-15 03:16:00,
2013-06-14 23:21:00,59.0,56.3,29.85,South,190,0.0,0.0,91,0.00,,,0.67,meteohub,2013-06-15 03:21:00,
2013-06-14 23:26:00,59.0,56.3,29.85,South,190,0.0,0.0,91,0.00,,,0.67,meteohub,2013-06-15 03:26:00,
2013-06-14 23:31:00,58.8,56.1,29.85,South,190,0.0,0.0,91,0.00,,,0.67,meteohub,2013-06-15 03:31:00,
2013-06-14 23:36:00,58.8,56.1,29.85,South,190,0.0,0.0,91,0.00,,,0.67,meteohub,2013-06-15 03:36:00,
2013-06-14 23:41:00,58.8,56.1,29.86,South,190,0.0,0.0,91,0.00,,,0.67,meteohub,2013-06-15 03:41:00,
2013-06-14 23:46:00,58.8,56.1,29.86,South,190,0.0,0.0,91,0.00,,,0.67,meteohub,2013-06-15 03:46:00,
2013-06-14 23:51:00,58.8,56.1,29.86,South,190,0.0,0.0,91,0.00,,,0.67,meteohub,2013-06-15 03:51:00,
2013-06-14 23:56:00,58.6,55.9,29.86,South,190,0.0,0.0,91,0.00,,,0.67,meteohub,2013-06-15 03:56:00,